This is the latest recevied weather packets stored in our database for station/object WA4IKQ. If no packets are shown the sender has not sent any weather packets the latest 10 day(s).
| Time | Temp. | Humidity | Pressure | Rain* | Wind** | Luminosity | Snow |
|---|---|---|---|---|---|---|---|
| 1777572165 | 31.67° C | 44% | 1010.8 hPa | 0 mm | 2.24 m/s, 290° | - | - |
| 1777571903 | 31.11° C | 46% | 1010.8 hPa | 0 mm | 3.13 m/s, 214° | - | - |
| 1777571775 | 31.11° C | 47% | 1011 hPa | 0 mm | 1.79 m/s, 304° | - | - |
| 1777571722 | 31.11° C | 47% | 1011 hPa | 0 mm | 1.79 m/s, 304° | - | - |
| 1777571684 | 31.11° C | 47% | 1011 hPa | 0 mm | 1.79 m/s, 304° | - | - |
| 1777571565 | 31.11° C | 47% | 1011 hPa | 0 mm | 1.79 m/s, 304° | - | - |
| 1777571428 | 30.56° C | 47% | 1011.2 hPa | 0 mm | 1.79 m/s, 228° | - | - |
| 1777571263 | 30.56° C | 47% | 1011.2 hPa | 0 mm | 1.79 m/s, 228° | - | - |
| 1777571111 | 30.56° C | 47% | 1011.3 hPa | 0 mm | 4.92 m/s, 194° | - | - |
| 1777570966 | 30.56° C | 47% | 1011.3 hPa | 0 mm | 4.92 m/s, 194° | - | - |
| 1777570499 | 30.56° C | 47% | 1011.5 hPa | 0 mm | 2.24 m/s, 255° | - | - |
| 1777570364 | 30.56° C | 47% | 1011.5 hPa | 0 mm | 2.24 m/s, 255° | - | - |
| 1777570127 | 30.56° C | 47% | 1011.6 hPa | 0 mm | 2.68 m/s, 278° | - | - |
| 1777570064 | 30.56° C | 47% | 1011.6 hPa | 0 mm | 2.68 m/s, 278° | - | - |
| 1777569935 | 31.11° C | 47% | 1011.4 hPa | 0 mm | 3.58 m/s, 260° | - | - |
| 1777569764 | 31.11° C | 47% | 1011.4 hPa | 0 mm | 3.58 m/s, 260° | - | - |
| 1777569601 | 31.11° C | 46% | 1011.4 hPa | 0 mm | 2.24 m/s, 229° | - | - |
| 1777569546 | 31.11° C | 46% | 1011.4 hPa | 0 mm | 2.24 m/s, 229° | - | - |
| 1777569465 | 31.11° C | 46% | 1011.4 hPa | 0 mm | 2.24 m/s, 229° | - | - |
| 1777569285 | 31.11° C | 47% | 1011.4 hPa | 0 mm | 1.79 m/s, 284° | - | - |
| 1777569240 | 31.11° C | 47% | 1011.4 hPa | 0 mm | 1.79 m/s, 284° | - | - |
| 1777569162 | 31.11° C | 47% | 1011.4 hPa | 0 mm | 1.79 m/s, 284° | - | - |
| 1777568906 | 31.11° C | 48% | 1011.4 hPa | 0 mm | 0.89 m/s, 163° | - | - |
| 1777568862 | 31.11° C | 48% | 1011.4 hPa | 0 mm | 0.89 m/s, 163° | - | - |
| 1777568775 | 30.56° C | 47% | 1011.6 hPa | 0 mm | 3.13 m/s, 195° | - | - |
* Rain latest hour (hover to see other rain measurements)
** Current wind speed in m/s (hover to see current wind gust speed)